Find Starlink 31611

NORAD ID: 59325 Int'l Des: 2024-057 Owner: SPXS Country: US Constellation: starlink operational
LEOCIRCULAR

リアルタイム位置

3D地球を読み込み中...

Starlink 31611について

説明を読み込み中...

次回通過

Passes for default location (London). Set your location on the main map for personalized predictions.

高度履歴

Loading altitude history...

軌道要素

1 59325U 24057F 26139.30241842 .00000968 00000-0 44689-4 0 9995
2 59325 43.0006 148.6964 0001381 266.6604 93.4090 15.27575391120632
Epoch: May 19, 2026 • Age: 7 hours

現在のステータス

高度 486.2 km
速度 7.63 km/s
衛星直下点 39.18°N, 122.84°E
打ち上げ日 Mar 25, 2024
運用期間 2.1 years
タイプ internet

技術仕様

分類 Payload
質量 730.00 kg
乾燥質量 700.00 kg
総質量 730.00 kg
長さ 0.30 m
直径 4.10 m
スパン 29.00 m
形状 Box + pan
製造者 SPXS
バスタイプ Starlink V2M
フェーズステータス In Orbit
所有者/国 SPXS/US

Most Searched